,,���z��,���z��,����,����
DATE,TIME,�z��l(kWh),���ђl(kWh),�z��l(kWh),���ђl(kWh)
2020/10/1,0:30,0,0,1860,4900
2020/10/1,1:00,0,0,1940,4700
2020/10/1,1:30,0,0,2025,3500
2020/10/1,2:00,0,0,2115,2800
2020/10/1,2:30,0,0,2195,2500
2020/10/1,3:00,0,0,2260,2600
2020/10/1,3:30,0,0,2260,3600
2020/10/1,4:00,0,0,2235,4000
2020/10/1,4:30,0,0,2170,4300
2020/10/1,5:00,0,0,2090,4100
2020/10/1,5:30,0,0,2030,4300
2020/10/1,6:00,0,0,1970,4000
2020/10/1,6:30,13152,3056,1925,1900
2020/10/1,7:00,36545,17083.8,1885,1100
2020/10/1,7:30,62596,33225.8,1795,800
2020/10/1,8:00,89443,77454.4,1660,500
2020/10/1,8:30,116604,127404.8,1515,1200
2020/10/1,9:00,141139,190885.2,1420,900
2020/10/1,9:30,161129,232668.4,1425,1100
2020/10/1,10:00,181019,241473.3,1535,900
2020/10/1,10:30,196767,229405.8,1735,1400
2020/10/1,11:00,210367,252710.7,1930,1900
2020/10/1,11:30,216202,219477.7,2105,3300
2020/10/1,12:00,219778,260176.4,2240,4500
2020/10/1,12:30,220895,281595.9,2340,6100
2020/10/1,13:00,212076,266112.1,2425,6400
2020/10/1,13:30,201319,268043.7,2500,6500
2020/10/1,14:00,189468,236357.7,2555,7200
2020/10/1,14:30,174727,219738.1,2650,5400
2020/10/1,15:00,151514,217307.9,2730,6600
2020/10/1,15:30,126098,155206.4,2835,8100
2020/10/1,16:00,97861,125752.9,2935,6000
2020/10/1,16:30,68686,81940.6,3015,5700
2020/10/1,17:00,38216,45044.2,3115,6200
2020/10/1,17:30,8624,12543,3375,4500
2020/10/1,18:00,0,0,3465,3300
2020/10/1,18:30,0,0,3335,3500
2020/10/1,19:00,0,0,3060,4600
2020/10/1,19:30,0,0,2780,3400
2020/10/1,20:00,0,0,2700,3400
2020/10/1,20:30,0,0,2625,2900
2020/10/1,21:00,0,0,2540,2000
2020/10/1,21:30,0,0,2405,1900
2020/10/1,22:00,0,0,2195,1900
2020/10/1,22:30,0,0,2025,1400
2020/10/1,23:00,0,0,1955,1600
2020/10/1,23:30,0,0,1995,900
2020/10/2,0:00,0,0,2065,900
2020/10/2,0:30,0,0,3555,1300
2020/10/2,1:00,0,0,3545,1400
2020/10/2,1:30,0,0,3580,1500
2020/10/2,2:00,0,0,3645,1400
2020/10/2,2:30,0,0,3765,1400
2020/10/2,3:00,0,0,3780,1100
2020/10/2,3:30,0,0,3765,900
2020/10/2,4:00,0,0,3650,1300
2020/10/2,4:30,0,0,3695,800
2020/10/2,5:00,0,0,3845,600
2020/10/2,5:30,0,0,4110,700
2020/10/2,6:00,0,0,4360,800
2020/10/2,6:30,14373,10112,4420,1300
2020/10/2,7:00,52297,43381.6,4300,1400
2020/10/2,7:30,89273,86759,4115,1100
2020/10/2,8:00,127002,139737.4,3935,600
2020/10/2,8:30,167225,182243.2,3810,500
2020/10/2,9:00,210245,233607.4,3660,400
2020/10/2,9:30,238665,266416.4,3260,100
2020/10/2,10:00,268807,304258.4,2440,0
2020/10/2,10:30,294192,327925.8,2100,0
2020/10/2,11:00,314502,351905.3,2085,0
2020/10/2,11:30,322572,359160.5,2385,0
2020/10/2,12:00,326561,366052.4,2280,0
2020/10/2,12:30,324705,362018.5,2310,100
2020/10/2,13:00,313976,354937.7,2375,700
2020/10/2,13:30,296258,329720.2,2430,1400
2020/10/2,14:00,272531,304945.4,2500,1200
2020/10/2,14:30,246604,272703.4,2580,1300
2020/10/2,15:00,203955,234634.9,2615,800
2020/10/2,15:30,166762,183931.8,2540,700
2020/10/2,16:00,125965,142675,2320,400
2020/10/2,16:30,85699,91021.2,1985,100
2020/10/2,17:00,44901,47626.5,1850,0
2020/10/2,17:30,7586,10517.2,2255,0
2020/10/2,18:00,0,0,3545,500
2020/10/2,18:30,0,0,4560,3600
2020/10/2,19:00,0,0,4860,6500
2020/10/2,19:30,0,0,4675,7400
2020/10/2,20:00,0,0,4355,6500
2020/10/2,20:30,0,0,4055,5000
2020/10/2,21:00,0,0,3805,4500
2020/10/2,21:30,0,0,3540,4900
2020/10/2,22:00,0,0,3340,5300
2020/10/2,22:30,0,0,3350,5700
2020/10/2,23:00,0,0,3655,4400
2020/10/2,23:30,0,0,4150,3900
2020/10/3,0:00,0,0,4680,3800
2020/10/3,0:30,0,0,4925,4800
2020/10/3,1:00,0,0,5260,6800
2020/10/3,1:30,0,0,5565,7700
2020/10/3,2:00,0,0,5985,8000
2020/10/3,2:30,0,0,6535,8400
2020/10/3,3:00,0,0,7030,7600
2020/10/3,3:30,0,0,7540,8600
2020/10/3,4:00,0,0,8030,8400
2020/10/3,4:30,0,0,8445,8200
2020/10/3,5:00,0,0,8870,11800
2020/10/3,5:30,0,0,9355,12500
2020/10/3,6:00,0,0,9810,12700
2020/10/3,6:30,10472,5812.1,10200,12800
2020/10/3,7:00,30363,21978.7,10585,12200
2020/10/3,7:30,50162,29917.1,11030,11300
2020/10/3,8:00,69904,41065.5,11550,13500
2020/10/3,8:30,90259,49908.6,12220,12000
2020/10/3,9:00,109989,65871.1,12945,11600
2020/10/3,9:30,127050,74784.8,13360,12500
2020/10/3,10:00,141261,74501.7,13405,9700
2020/10/3,10:30,151025,78257.2,13305,9500
2020/10/3,11:00,152926,90558.1,13190,10100
2020/10/3,11:30,143101,98970.8,13185,11100
2020/10/3,12:00,137007,108202,13035,5500
2020/10/3,12:30,130458,101281.6,12305,3500
2020/10/3,13:00,123876,83804.7,10950,2000
2020/10/3,13:30,121514,76033.7,9120,1800
2020/10/3,14:00,117839,96104.1,7765,2100
2020/10/3,14:30,110120,114173.6,6605,1700
2020/10/3,15:00,95741,134365.7,5715,2000
2020/10/3,15:30,73595,118819.3,4975,2500
2020/10/3,16:00,55584,123483.6,4330,1300
2020/10/3,16:30,40566,84179.2,3790,400
2020/10/3,17:00,22975,40945.6,3335,100
2020/10/3,17:30,5922,11240.1,2995,100
2020/10/3,18:00,0,0,2640,100
2020/10/3,18:30,0,0,2355,400
2020/10/3,19:00,0,0,2240,1300
2020/10/3,19:30,0,0,2295,1900
2020/10/3,20:00,0,0,2115,1800
2020/10/3,20:30,0,0,2090,1600
2020/10/3,21:00,0,0,2110,1500
2020/10/3,21:30,0,0,2140,2100
2020/10/3,22:00,0,0,2190,2500
2020/10/3,22:30,0,0,2270,2300
2020/10/3,23:00,0,0,2365,2600
2020/10/3,23:30,0,0,2505,2100
2020/10/4,0:00,0,0,2620,2300
2020/10/4,0:30,0,0,3740,2800
2020/10/4,1:00,0,0,3790,3300
2020/10/4,1:30,0,0,3890,3000
2020/10/4,2:00,0,0,4010,2400
2020/10/4,2:30,0,0,4190,2000
2020/10/4,3:00,0,0,4410,1600
2020/10/4,3:30,0,0,4510,2600
2020/10/4,4:00,0,0,4560,1700
2020/10/4,4:30,0,0,4565,2000
2020/10/4,5:00,0,0,4595,2700
2020/10/4,5:30,0,0,4665,3700
2020/10/4,6:00,0,0,4785,4800
2020/10/4,6:30,7982,1919,4920,4100
2020/10/4,7:00,22725,10340,5130,4600
2020/10/4,7:30,37704,14850.2,5335,5700
2020/10/4,8:00,51254,25264.1,5640,5800
2020/10/4,8:30,62839,29131.7,5955,6800
2020/10/4,9:00,72955,44024.9,6225,6600
2020/10/4,9:30,82519,54935,6595,6800
2020/10/4,10:00,90820,73968,7110,6900
2020/10/4,10:30,97464,89853.8,7700,7600
2020/10/4,11:00,100192,127117.2,8485,7000
2020/10/4,11:30,98688,154830.2,9400,9900
2020/10/4,12:00,98612,192537.9,10255,12000
2020/10/4,12:30,102149,196230.1,10765,13400
2020/10/4,13:00,101328,170024.1,10985,14200
2020/10/4,13:30,98782,177710.1,11000,11100
2020/10/4,14:00,92018,134029.6,11020,11900
2020/10/4,14:30,82137,99411.2,11200,12600
2020/10/4,15:00,70108,76593.3,11495,11000
2020/10/4,15:30,59020,45355.4,11685,9900
2020/10/4,16:00,46780,23510.7,11740,12000
2020/10/4,16:30,33712,16625.9,11765,13100
2020/10/4,17:00,19080,14080.6,11835,13500
2020/10/4,17:30,5123,2512,11950,18000
2020/10/4,18:00,0,0,12170,19500
2020/10/4,18:30,0,0,12590,18200
2020/10/4,19:00,0,0,13130,15600
2020/10/4,19:30,0,0,13750,16800
2020/10/4,20:00,0,0,14410,26400
2020/10/4,20:30,0,0,15115,32800
2020/10/4,21:00,0,0,15865,34800
2020/10/4,21:30,0,0,16730,35200
2020/10/4,22:00,0,0,17895,34700
2020/10/4,22:30,0,0,19485,32900
2020/10/4,23:00,0,0,21254,31600
2020/10/4,23:30,0,0,22889,35800
2020/10/5,0:00,0,0,23969,33600
2020/10/5,0:30,0,0,22524,36000
2020/10/5,1:00,0,0,22819,42700
2020/10/5,1:30,0,0,23024,39600
2020/10/5,2:00,0,0,23289,41100
2020/10/5,2:30,0,0,23704,41800
2020/10/5,3:00,0,0,23879,40300
2020/10/5,3:30,0,0,23264,41600
2020/10/5,4:00,0,0,21924,40300
2020/10/5,4:30,0,0,20405,42900
2020/10/5,5:00,0,0,19410,41700
2020/10/5,5:30,0,0,19180,24300
2020/10/5,6:00,0,0,19335,28000
2020/10/5,6:30,8389,100,19235,27200
2020/10/5,7:00,22041,3515,18740,27300
2020/10/5,7:30,35197,3972,18115,23900
2020/10/5,8:00,48623,8483.2,17630,23600
2020/10/5,8:30,64739,10643.2,17505,19800
2020/10/5,9:00,79795,16497.3,17550,19300
2020/10/5,9:30,96438,21860.2,17215,21000
2020/10/5,10:00,114872,31032.7,16375,19700
2020/10/5,10:30,134796,55341,15205,18800
2020/10/5,11:00,152501,61772.1,14105,18000
2020/10/5,11:30,167634,71013.4,13255,17000
2020/10/5,12:00,176683,103719.5,12610,17000
2020/10/5,12:30,181226,130994.7,12110,17100
2020/10/5,13:00,184934,153401.4,11705,16800
2020/10/5,13:30,179926,143452.2,11435,15500
2020/10/5,14:00,168335,143339.2,11220,17600
2020/10/5,14:30,156625,171467.4,10985,17200
2020/10/5,15:00,136744,162701,10825,19700
2020/10/5,15:30,114456,124933.1,10820,20700
2020/10/5,16:00,86123,116794.2,10990,25900
2020/10/5,16:30,58811,73048.6,11330,21700
2020/10/5,17:00,30555,37239.3,11820,21200
2020/10/5,17:30,4822,8486.1,12345,24300
2020/10/5,18:00,0,0,12725,27800
2020/10/5,18:30,0,0,12795,25400
2020/10/5,19:00,0,0,12645,20100
2020/10/5,19:30,0,0,12590,24600
2020/10/5,20:00,0,0,12640,21000
2020/10/5,20:30,0,0,12655,21000
2020/10/5,21:00,0,0,12480,20900
2020/10/5,21:30,0,0,12040,21500
2020/10/5,22:00,0,0,11475,19600
2020/10/5,22:30,0,0,10970,21600
2020/10/5,23:00,0,0,10580,12900
2020/10/5,23:30,0,0,10210,13300
2020/10/6,0:00,0,0,9785,20100
2020/10/6,0:30,0,0,10650,14900
2020/10/6,1:00,0,0,10130,16000
2020/10/6,1:30,0,0,9590,15600
2020/10/6,2:00,0,0,9160,13800
2020/10/6,2:30,0,0,8915,10000
2020/10/6,3:00,0,0,8755,8300
2020/10/6,3:30,0,0,8595,9000
2020/10/6,4:00,0,0,8445,7700
2020/10/6,4:30,0,0,8340,5800
2020/10/6,5:00,0,0,8315,6500
2020/10/6,5:30,0,0,8405,9700
2020/10/6,6:00,0,0,8530,10200
2020/10/6,6:30,11233,1825,8570,10600
2020/10/6,7:00,35562,10090.1,8520,10700
2020/10/6,7:30,61150,16261.4,8410,8500
2020/10/6,8:00,86736,30965.5,8315,6600
2020/10/6,8:30,113599,44602.4,8285,3300
2020/10/6,9:00,139490,61497.5,8285,2900
2020/10/6,9:30,162054,94350.2,8230,2500
2020/10/6,10:00,185473,168871,8115,3800
2020/10/6,10:30,200411,238911.7,7970,6400
2020/10/6,11:00,216749,288324.3,7840,9100
2020/10/6,11:30,224814,285396.2,7760,10500
2020/10/6,12:00,235343,270515.7,7765,10800
2020/10/6,12:30,239823,288863.1,7855,11800
2020/10/6,13:00,238794,261266,8025,11000
2020/10/6,13:30,230487,251928.4,8230,11900
2020/10/6,14:00,213598,215821.8,8440,12400
2020/10/6,14:30,192972,196295.8,8615,12300
2020/10/6,15:00,167501,164379.5,8730,12700
2020/10/6,15:30,134750,124381.3,8760,13900
2020/10/6,16:00,100135,96201.4,8705,13800
2020/10/6,16:30,67809,51143.8,8620,13000
2020/10/6,17:00,34270,26653.8,8535,10400
2020/10/6,17:30,4040,5640,8480,9500
2020/10/6,18:00,0,0,8415,10500
2020/10/6,18:30,0,0,8295,10100
2020/10/6,19:00,0,0,8110,10100
2020/10/6,19:30,0,0,7925,10400
2020/10/6,20:00,0,0,7760,8200
2020/10/6,20:30,0,0,7595,6700
2020/10/6,21:00,0,0,7470,6500
2020/10/6,21:30,0,0,7365,6600
2020/10/6,22:00,0,0,7265,8500
2020/10/6,22:30,0,0,7145,8600
2020/10/6,23:00,0,0,7030,9600
2020/10/6,23:30,0,0,6930,9800
2020/10/7,0:00,0,0,6870,8100
2020/10/7,0:30,0,0,9775,7700
2020/10/7,1:00,0,0,10060,8900
2020/10/7,1:30,0,0,10360,8500
2020/10/7,2:00,0,0,10700,8200
2020/10/7,2:30,0,0,11075,8600
2020/10/7,3:00,0,0,11495,10200
2020/10/7,3:30,0,0,11940,10200
2020/10/7,4:00,0,0,12425,11200
2020/10/7,4:30,0,0,12910,11700
2020/10/7,5:00,0,0,13395,11600
2020/10/7,5:30,0,0,13900,12400
2020/10/7,6:00,0,0,14335,13900
2020/10/7,6:30,10362,2544,14690,12400
2020/10/7,7:00,38527,15892.5,14935,11600
2020/10/7,7:30,67018,35090.8,15125,11600
2020/10/7,8:00,95920,76771.1,15330,10800
2020/10/7,8:30,124656,116433.5,15565,10000
2020/10/7,9:00,155852,158985.4,15880,10500
2020/10/7,9:30,180841,176536.7,16315,9100
2020/10/7,10:00,202261,211328,16810,12000
2020/10/7,10:30,216275,246881.8,17335,13000
2020/10/7,11:00,227532,281088.8,17875,12100
2020/10/7,11:30,232734,291791.2,18410,12000
2020/10/7,12:00,242110,324907.2,18920,10900
2020/10/7,12:30,241697,290202.3,19450,12800
2020/10/7,13:00,230857,256795.9,19950,14100
2020/10/7,13:30,217572,239157.1,20464,15600
2020/10/7,14:00,200206,205188.4,20924,15400
2020/10/7,14:30,177014,168173.8,21384,15000
2020/10/7,15:00,149824,169202.1,21759,15400
2020/10/7,15:30,125432,122023.3,22054,14100
2020/10/7,16:00,94271,89322.4,22269,12100
2020/10/7,16:30,63055,48578,22444,13700
2020/10/7,17:00,31464,25723.6,22644,15800
2020/10/7,17:30,3321,4736,22909,14900
2020/10/7,18:00,0,0,23009,16500
2020/10/7,18:30,0,0,22579,18700
2020/10/7,19:00,0,0,21654,16600
2020/10/7,19:30,0,0,20509,16600
2020/10/7,20:00,0,0,19295,18200
2020/10/7,20:30,0,0,18275,18200
2020/10/7,21:00,0,0,17510,12800
2020/10/7,21:30,0,0,16995,9700
2020/10/7,22:00,0,0,16640,11300
2020/10/7,22:30,0,0,16300,12700
2020/10/7,23:00,0,0,15940,11600
2020/10/7,23:30,0,0,15620,12100
2020/10/8,0:00,0,0,15305,13900
2020/10/8,0:30,0,0,13630,14500
2020/10/8,1:00,0,0,13545,14300
2020/10/8,1:30,0,0,13715,12300
2020/10/8,2:00,0,0,14045,11400
2020/10/8,2:30,0,0,14470,15800
2020/10/8,3:00,0,0,14970,15100
2020/10/8,3:30,0,0,15440,14000
2020/10/8,4:00,0,0,15800,13200
2020/10/8,4:30,0,0,16005,9100
2020/10/8,5:00,0,0,16025,11200
2020/10/8,5:30,0,0,15805,13700
2020/10/8,6:00,0,0,15450,12800
2020/10/8,6:30,2701,100,15045,15600
2020/10/8,7:00,9086,4242,14600,14400
2020/10/8,7:30,15505,7697.1,14300,14900
2020/10/8,8:00,21148,14975.8,14230,10100
2020/10/8,8:30,27747,16558.5,14195,8500
2020/10/8,9:00,30857,21911.2,14030,6700
2020/10/8,9:30,36286,23498.8,13635,8300
2020/10/8,10:00,40599,32443.1,13055,12200
2020/10/8,10:30,44463,38457.9,12380,6000
2020/10/8,11:00,46332,40256.3,11750,5400
2020/10/8,11:30,49958,28368.8,11185,10800
2020/10/8,12:00,50089,39193.6,10855,9500
2020/10/8,12:30,48837,35284.3,10855,12100
2020/10/8,13:00,48110,36191.4,11235,12800
2020/10/8,13:30,45312,31004.1,11875,14000
2020/10/8,14:00,41049,31306.5,12670,10300
2020/10/8,14:30,37681,24061.1,13450,11600
2020/10/8,15:00,33887,21202.8,14145,13900
2020/10/8,15:30,31039,15877.4,14820,15900
2020/10/8,16:00,25385,16553.1,15465,18300
2020/10/8,16:30,18340,9396,16090,20800
2020/10/8,17:00,9568,6061,16735,24600
2020/10/8,17:30,1341,500,17390,26800
2020/10/8,18:00,0,0,17995,25700
2020/10/8,18:30,0,0,18490,27600
2020/10/8,19:00,0,0,18925,28600
2020/10/8,19:30,0,0,19430,30800
2020/10/8,20:00,0,0,19975,32600
2020/10/8,20:30,0,0,20439,32100
2020/10/8,21:00,0,0,20824,33300
2020/10/8,21:30,0,0,21159,33000
2020/10/8,22:00,0,0,21429,30200
2020/10/8,22:30,0,0,21704,32700
2020/10/8,23:00,0,0,21954,35600
2020/10/8,23:30,0,0,22179,34800
2020/10/9,0:00,0,0,22364,37300
2020/10/9,0:30,0,0,21329,37000
2020/10/9,1:00,0,0,21419,35200
2020/10/9,1:30,0,0,21629,33900
2020/10/9,2:00,0,0,21849,36500
2020/10/9,2:30,0,0,22009,33600
2020/10/9,3:00,0,0,22114,37500
2020/10/9,3:30,0,0,22224,37600
2020/10/9,4:00,0,0,22299,33400
2020/10/9,4:30,0,0,22339,34100
2020/10/9,5:00,0,0,22344,34600
2020/10/9,5:30,0,0,22344,32600
2020/10/9,6:00,0,0,22294,30300
2020/10/9,6:30,8846,909,22239,30900
2020/10/9,7:00,31335,8446,22149,29900
2020/10/9,7:30,56094,15019.3,22024,30100
2020/10/9,8:00,81576,28254.9,21924,31800
2020/10/9,8:30,104609,36774.2,21869,31700
2020/10/9,9:00,126026,46054.5,21814,31700
2020/10/9,9:30,142202,63291,21719,31100
2020/10/9,10:00,155963,81755.8,21539,32000
2020/10/9,10:30,163532,86905.6,21314,33200
2020/10/9,11:00,166102,104733,21034,28900
2020/10/9,11:30,163662,109293.7,20734,25300
2020/10/9,12:00,162481,109531.9,20370,27400
2020/10/9,12:30,157560,105248,20020,27700
2020/10/9,13:00,150056,116202.3,19490,26500
2020/10/9,13:30,137866,111967.2,18990,26000
2020/10/9,14:00,121727,95956.9,18655,23500
2020/10/9,14:30,105130,74111.4,18465,18500
2020/10/9,15:00,88982,68705.1,18355,17900
2020/10/9,15:30,63673,53310.3,18225,15300
2020/10/9,16:00,48177,38299.1,18025,12500
2020/10/9,16:30,33112,20392.5,17745,11600
2020/10/9,17:00,17218,11055.1,17135,11200
2020/10/9,17:30,2158,1206,15680,11800
2020/10/9,18:00,0,0,14160,11000
2020/10/9,18:30,0,0,13525,10700
2020/10/9,19:00,0,0,13390,6900
2020/10/9,19:30,0,0,13185,4300
2020/10/9,20:00,0,0,12725,5400
2020/10/9,20:30,0,0,12220,4100
2020/10/9,21:00,0,0,11925,4100
2020/10/9,21:30,0,0,11735,3600
2020/10/9,22:00,0,0,11325,3300
2020/10/9,22:30,0,0,10550,3300
2020/10/9,23:00,0,0,9420,1500
2020/10/9,23:30,0,0,7960,400
2020/10/10,0:00,0,0,6910,100
2020/10/10,0:30,0,0,5415,200
2020/10/10,1:00,0,0,5475,100
2020/10/10,1:30,0,0,5605,0
2020/10/10,2:00,0,0,5855,200
2020/10/10,2:30,0,0,6215,200
2020/10/10,3:00,0,0,6560,300
2020/10/10,3:30,0,0,7055,100
2020/10/10,4:00,0,0,7760,200
2020/10/10,4:30,0,0,8485,300
2020/10/10,5:00,0,0,9210,100
2020/10/10,5:30,0,0,9935,0
2020/10/10,6:00,0,0,10495,0
2020/10/10,6:30,2890,1123,10930,200
2020/10/10,7:00,10325,10200.1,11275,100
2020/10/10,7:30,17170,20886.5,11575,0
2020/10/10,8:00,23778,40474.1,11915,0
2020/10/10,8:30,28612,47296.1,12370,0
2020/10/10,9:00,33793,80802.9,12755,0
2020/10/10,9:30,38339,112922.3,12905,0
2020/10/10,10:00,41878,156169.5,12850,100
2020/10/10,10:30,45617,198787.3,12710,0
2020/10/10,11:00,49522,202019,12645,0
2020/10/10,11:30,50041,190420.4,12725,0
2020/10/10,12:00,49464,183946.8,13025,500
2020/10/10,12:30,51268,137914.2,13630,1300
2020/10/10,13:00,54550,129268.2,14505,2700
2020/10/10,13:30,46128,169906.8,15595,1300
2020/10/10,14:00,38626,201872.4,16760,100
2020/10/10,14:30,37719,165644.9,17860,200
2020/10/10,15:00,33611,130286.1,18780,400
2020/10/10,15:30,29089,119604,19455,200
2020/10/10,16:00,22529,99261.7,19975,200
2020/10/10,16:30,14697,65794.2,20419,200
2020/10/10,17:00,7211,33966,20889,200
2020/10/10,17:30,723,7119,21504,600
2020/10/10,18:00,0,0,21859,900
2020/10/10,18:30,0,0,21359,600
2020/10/10,19:00,0,0,20020,200
2020/10/10,19:30,0,0,17940,200
2020/10/10,20:00,0,0,15565,0
2020/10/10,20:30,0,0,13295,0
2020/10/10,21:00,0,0,11815,100
2020/10/10,21:30,0,0,11300,300
2020/10/10,22:00,0,0,11625,1500
2020/10/10,22:30,0,0,12455,3300
2020/10/10,23:00,0,0,13355,2400
2020/10/10,23:30,0,0,14070,2700
2020/10/11,0:00,0,0,14555,1500
2020/10/11,0:30,0,0,4845,700
2020/10/11,1:00,0,0,4685,800
2020/10/11,1:30,0,0,4520,900
2020/10/11,2:00,0,0,4395,800
2020/10/11,2:30,0,0,4345,1500
2020/10/11,3:00,0,0,4300,1200
2020/10/11,3:30,0,0,4235,900
2020/10/11,4:00,0,0,4120,300
2020/10/11,4:30,0,0,4020,300
2020/10/11,5:00,0,0,3925,0
2020/10/11,5:30,0,0,3825,0
2020/10/11,6:00,0,0,3720,0
2020/10/11,6:30,7770,3873,3560,0
2020/10/11,7:00,34025,21129.2,3330,0
2020/10/11,7:30,62225,50271.9,3075,0
2020/10/11,8:00,90432,76446.3,2850,0
2020/10/11,8:30,117108,104044.1,2740,0
2020/10/11,9:00,143583,129651.8,2690,0
2020/10/11,9:30,165895,178732.5,2725,0
2020/10/11,10:00,190155,215473.1,2910,0
2020/10/11,10:30,207122,211600.4,3265,100
2020/10/11,11:00,217134,224548.7,3655,700
2020/10/11,11:30,219613,164938.4,4000,2100
2020/10/11,12:00,220056,137371,4260,3800
2020/10/11,12:30,219258,100813.4,4435,3700
2020/10/11,13:00,212598,76260.8,4545,4100
2020/10/11,13:30,201092,58065.3,4615,4600
2020/10/11,14:00,184165,60534.5,4710,4000
2020/10/11,14:30,163710,57015.7,4845,2700
2020/10/11,15:00,137970,64632.6,4920,1400
2020/10/11,15:30,111356,70978.9,4795,500
2020/10/11,16:00,82370,77596.7,4515,0
2020/10/11,16:30,53487,52251.3,4175,100
2020/10/11,17:00,24279,27003.6,3760,100
2020/10/11,17:30,1315,5022,3535,0
2020/10/11,18:00,0,0,3355,0
2020/10/11,18:30,0,0,3215,400
2020/10/11,19:00,0,0,3105,400
2020/10/11,19:30,0,0,3015,200
2020/10/11,20:00,0,0,2915,700
2020/10/11,20:30,0,0,2870,600
2020/10/11,21:00,0,0,2820,200
2020/10/11,21:30,0,0,2755,100
2020/10/11,22:00,0,0,2635,200
2020/10/11,22:30,0,0,2555,0
2020/10/11,23:00,0,0,2550,200
2020/10/11,23:30,0,0,2580,200
2020/10/12,0:00,0,0,2625,300
2020/10/12,0:30,0,0,4475,200
2020/10/12,1:00,0,0,4475,200
2020/10/12,1:30,0,0,4490,200
2020/10/12,2:00,0,0,4510,100
2020/10/12,2:30,0,0,4565,500
2020/10/12,3:00,0,0,4600,400
2020/10/12,3:30,0,0,4655,500
2020/10/12,4:00,0,0,4715,500
2020/10/12,4:30,0,0,4780,300
2020/10/12,5:00,0,0,4845,700
2020/10/12,5:30,0,0,4910,500
2020/10/12,6:00,0,0,4895,600
2020/10/12,6:30,6046,2536,4685,400
2020/10/12,7:00,23610,17430.6,4415,500
2020/10/12,7:30,44111,35088.7,4165,800
2020/10/12,8:00,67298,57927.2,4025,500
2020/10/12,8:30,91156,81287.5,4085,400
2020/10/12,9:00,112647,116050.1,4310,200
2020/10/12,9:30,128647,152022.4,3840,200
2020/10/12,10:00,146713,190503.7,3460,0
2020/10/12,10:30,154741,229099,3660,100
2020/10/12,11:00,160978,255019.8,4095,400
2020/10/12,11:30,161834,260045.7,4685,800
2020/10/12,12:00,159626,263489,5270,2000
2020/10/12,12:30,157472,227253.1,5820,2400
2020/10/12,13:00,151886,167037.3,6405,2200
2020/10/12,13:30,139617,131800.2,7015,3400
2020/10/12,14:00,126161,142522.7,7635,6700
2020/10/12,14:30,110226,116436.9,8320,3200
2020/10/12,15:00,90822,86125,8970,3400
2020/10/12,15:30,70357,51019.5,9010,4000
2020/10/12,16:00,49853,35223.2,8355,9300
2020/10/12,16:30,33016,15456.2,7655,10300
2020/10/12,17:00,15565,5016,6905,10300
2020/10/12,17:30,687,300,6320,5600
2020/10/12,18:00,0,0,6040,5100
2020/10/12,18:30,0,0,5890,2800
2020/10/12,19:00,0,0,5790,2600
2020/10/12,19:30,0,0,5685,9600
2020/10/12,20:00,0,0,5565,9800
2020/10/12,20:30,0,0,5480,7700
2020/10/12,21:00,0,0,5460,7000
2020/10/12,21:30,0,0,5570,4600
2020/10/12,22:00,0,0,5775,2000
2020/10/12,22:30,0,0,6010,1800
2020/10/12,23:00,0,0,6250,1500
2020/10/12,23:30,0,0,6540,1300
2020/10/13,0:00,0,0,6840,100
2020/10/13,0:30,0,0,10030,400
2020/10/13,1:00,0,0,10495,100
2020/10/13,1:30,0,0,11010,400
2020/10/13,2:00,0,0,11635,1200
2020/10/13,2:30,0,0,12285,1700
2020/10/13,3:00,0,0,12890,3500
2020/10/13,3:30,0,0,13170,5000
2020/10/13,4:00,0,0,13185,6600
2020/10/13,4:30,0,0,13035,7000
2020/10/13,5:00,0,0,12915,7000
2020/10/13,5:30,0,0,12895,7700
2020/10/13,6:00,0,0,12815,6600
2020/10/13,6:30,5657,913,12335,5600
2020/10/13,7:00,23682,8364.1,11480,3600
2020/10/13,7:30,43351,16301.2,10515,1900
2020/10/13,8:00,62946,30868.6,9550,300
2020/10/13,8:30,82557,54673.4,8860,300
2020/10/13,9:00,100532,90607,8375,400
2020/10/13,9:30,116491,138363.2,8040,300
2020/10/13,10:00,132836,202847.7,7815,400
2020/10/13,10:30,147370,189674.1,7640,800
2020/10/13,11:00,161983,207779.6,7440,200
2020/10/13,11:30,170910,205504.3,7255,1500
2020/10/13,12:00,181216,225782.8,7065,3800
2020/10/13,12:30,185618,209893.3,6930,3600
2020/10/13,13:00,180873,233256.3,6855,4100
2020/10/13,13:30,169322,201756.2,6825,3800
2020/10/13,14:00,152515,189479.7,6830,4200
2020/10/13,14:30,133314,140942.4,6800,4000
2020/10/13,15:00,110955,139060.9,6720,3900
2020/10/13,15:30,88553,119893,6565,4000
2020/10/13,16:00,63293,90237.7,6335,3700
2020/10/13,16:30,40783,55364.6,6100,3800
2020/10/13,17:00,18172,25919.7,5955,4700
2020/10/13,17:30,301,2406,5870,4100
2020/10/13,18:00,0,0,5815,3400
2020/10/13,18:30,0,0,5705,4800
2020/10/13,19:00,0,0,5530,5400
2020/10/13,19:30,0,0,5375,3800
2020/10/13,20:00,0,0,5205,2800
2020/10/13,20:30,0,0,5065,2600
2020/10/13,21:00,0,0,4960,2300
2020/10/13,21:30,0,0,4875,1800
2020/10/13,22:00,0,0,4845,1900
2020/10/13,22:30,0,0,4870,2800
2020/10/13,23:00,0,0,4860,3700
2020/10/13,23:30,0,0,4860,3700
2020/10/14,0:00,0,0,4810,2700
2020/10/14,0:30,0,0,4760,4000
2020/10/14,1:00,0,0,4645,3800
2020/10/14,1:30,0,0,4525,3700
2020/10/14,2:00,0,0,4400,3200
2020/10/14,2:30,0,0,4285,2000
2020/10/14,3:00,0,0,4195,1400
2020/10/14,3:30,0,0,4145,1800
2020/10/14,4:00,0,0,4180,2000
2020/10/14,4:30,0,0,4255,2200
2020/10/14,5:00,0,0,4340,400
2020/10/14,5:30,0,0,4405,200
2020/10/14,6:00,0,0,4440,100
2020/10/14,6:30,5892,3991,4435,400
2020/10/14,7:00,33609,31482.5,4410,400
2020/10/14,7:30,62639,69733.3,4385,200
2020/10/14,8:00,92762,117674.3,4385,0
2020/10/14,8:30,123340,162171.9,4425,0
2020/10/14,9:00,150577,198260.9,4490,0
2020/10/14,9:30,172315,233884.3,4630,300
2020/10/14,10:00,193215,247582.7,4815,700
2020/10/14,10:30,207824,248130.2,5065,900
2020/10/14,11:00,220662,271991.3,5420,2800
2020/10/14,11:30,227580,252193.9,5820,4900
2020/10/14,12:00,229183,290515.9,6160,6600
2020/10/14,12:30,225952,278650.6,6240,5800
2020/10/14,13:00,214964,283739.2,6055,6600
2020/10/14,13:30,198081,246479.3,5740,7200
2020/10/14,14:00,177540,222290.7,5400,5400
2020/10/14,14:30,153830,194459.9,5105,4400
2020/10/14,15:00,122592,153323.7,4990,5800
2020/10/14,15:30,99359,98288.9,5170,8500
2020/10/14,16:00,69242,61598.5,5650,7400
2020/10/14,16:30,42940,30850.2,6365,6300